Showing default

METEOR 2-6, 11962

Orbit data source: Space-Track

METEOR 2-6, 11962 is a Commonwealth of Independent States-origin payload satellite in LEO that was launched on Tue, 09 Sep 1980 UTC via a VOSTOK 8A92M launch vehicle from the Plesetsk Missile And Space Complex (PKMTR). Payload-class satellites include a variety of spacecraft equipped with specific instruments for various scientific and technological missions. These include communications satellites like Starlink; space stations such as the ISS; scientific satellites like the Hubble; Earth observation satellites from companies like Planet Labs, Umbra, and HawkEye 360; GPS; miniature CubeSats for education and research; and military/defense satellites.

Loading next visibility...
Identifier
11962, 1980-073A
Orbit
LEO
Country
Flag of CISCIS
Related business
Manufacturer
VNIIEM
Mission
Spacecraft
Bus & Motor
METEOR-2, Unknown motor
Mass
~1,500 kg wet, ~1,500 kg dry
Launch date (UTC)
1980-09-09 (45 years ago)
Launch vehicle
VOSTOK 8A92M
Launch site
Plesetsk Missile And Space Complex (PKMTR)
Object type
Payload
Rocket body
Debris
Shape & HBR
Unknown
Radar Cross Section
Large (>1 m²)

Expand to show TLE details & history
Last TLE update: 10 hours ago

TLE from 10 hours ago
0 METEOR 2-6
1 11962U 80073A   25351.90517567 -.00000044  00000-0 -30901-4 0  9990
2 11962  81.2224 267.0488 0035349 293.7736  65.9730 14.11106797329164
Epoch: 2025-12-17T21:43Z
TLE epoch observation values (Epoch: 2025-12-17T21:43:27.177Z)
Latitude
-0.00002°
Longitude
-145.58277°
Altitude
848.149 km
Speed
7.434 km/s
True Right ascension
17h 48m 11s
True Declination
0° 00' 00"
Sunlit
Object was in daylight at epoch
Visualization orbit readout
Latitude
Unknown
Longitude
Unknown
Altitude
Unknown
Speed
Unknown
Apparent Right ascension
Unknown
Apparent Declination
Unknown
Sunlit
N/A
Visualization observer readout
Local Sidereal Time
06:25:27
Azimuth
Unknown
Elevation
Unknown
Doppler factor
Unknown
Orbital elements
Apogee altitude
878.321 km
Perigee altitude
827.2 km
Semi-major axis
7,230.897 km
Eccentricity
0.00353
Inclination
81.2224°
RAAN
267.0488°
Arg. of periapsis
293.7736°
True anomaly
66.34364°
Mean anomaly
65.973°
Eccentric anomaly
66.15825°
Mean motion
3.52984 °/min
Orbital period
101.99 mins
BSTAR
-0.000030901
Loading maneuver chart data...
Computing Atmospheric mass density...
Loading historical data...
Loading historical data...
Loading historical data...
Loading historical data...
Loading historical data...
Loading historical data...
Loading historical data...

Documentation

Showing up to 5 results
|